Elephant Butte, NM

6:31 AM MDT on September 26, 2016 (GMT -0600)
Truth Or Consequences Municipal

Weather History for KTCS - February, 2013

Change the Weather History Date:

Thursday, February 21, 2013

  Actual Average Record
Temperature  
Mean Temperature 40 °F -  
Max Temperature 51 °F 61 °F 76 °F (2016)
Min Temperature 29 °F 34 °F 27 °F (2012)
Degree Days  
Heating Degree Days 25    
Month to date heating degree days 436  
Since 1 July heating degree days 2379  
Moisture  
Dew Point 15 °F    
Average Humidity 35    
Maximum Humidity 49    
Minimum Humidity 21    
Precipitation  
Precipitation 0.00 in - 0.00 in (2016)
Month to date precipitation 0.01  
Year to date precipitation 0.08  
Sea Level Pressure  
Sea Level Pressure 29.75 in    
Wind  
Wind Speed 10 mph (West)    
Max Wind Speed 25 mph    
Max Gust Speed 31 mph    
Visibility 10 miles    
Events      
T = Trace of Precipitation, MM = Missing Value Source: NWS Daily Summary

Daily Weather History Graph

Daily Weather History Graph

Search for Another Location

Airport or City:

Trip Planner

Search our weather history database for the weather conditions in past years. The results will help you decide how hot, cold, wet, or windy it might be!

Date:

Astronomy

Feb. 21, 2013 Rise Set
Actual Time 6:46 AM MST 5:59 PM MST
Civil Twilight 6:21 AM MST 6:24 PM MST
Nautical Twilight 5:52 AM MST 6:53 PM MST
Astronomical Twilight 5:23 AM MST 7:22 PM MST
Moon 2:24 PM MST (2/21) 3:44 AM MST (2/21)
Length of Visible Light 12h 03m
Length of Day
11h 13m
Waxing Gibbous, 84% of the Moon is Illuminated
Feb 21
Waxing Gibbous
Feb 25
Full
Mar 4
Last Quarter
Mar 11
New
Mar 19
First Quarter

Hourly Weather History & Observations

Time (MST) Temp. Windchill Dew Point Humidity Pressure Visibility Wind Dir Wind Speed Gust Speed Precip Events Conditions
12:53 AM 32.0 °F 26.4 °F 12.0 °F 44% 29.62 in 10.0 mi West 5.8 mph - N/A   Clear
1:53 AM 30.9 °F 20.2 °F 12.0 °F 46% 29.64 in 10.0 mi West 15.0 mph - N/A   Clear
2:53 AM 28.9 °F 23.9 °F 10.9 °F 47% 29.64 in 10.0 mi Variable 4.6 mph - N/A   Clear
3:53 AM 30.0 °F 25.2 °F 12.0 °F 47% 29.65 in 10.0 mi West 4.6 mph - N/A   Clear
4:53 AM 32.0 °F - 12.9 °F 45% 29.68 in 10.0 mi Calm Calm - N/A   Scattered Clouds
5:53 AM 30.0 °F 20.0 °F 14.0 °F 51% 29.72 in 10.0 mi West 12.7 mph - N/A   Clear
6:53 AM 32.0 °F 21.2 °F 15.1 °F 50% 29.73 in 10.0 mi West 16.1 mph - N/A   Clear
7:53 AM 34.0 °F 24.6 °F 16.0 °F 48% 29.79 in 10.0 mi West 13.8 mph - N/A   Clear
8:53 AM 39.0 °F 29.6 °F 17.1 °F 41% 29.81 in 10.0 mi West 18.4 mph 24.2 mph N/A   Clear
9:53 AM 41.0 °F 31.9 °F 16.0 °F 36% 29.83 in 10.0 mi West 19.6 mph 28.8 mph N/A   Clear
10:53 AM 43.0 °F 35.1 °F 16.0 °F 34% 29.83 in 10.0 mi West 17.3 mph 26.5 mph N/A   Clear
11:53 AM 46.9 °F - 15.1 °F 28% 29.80 in 10.0 mi WNW 12.7 mph 21.9 mph N/A   Clear
12:53 PM 46.9 °F - 15.1 °F 28% 29.77 in 10.0 mi SSW 12.7 mph - N/A   Clear
1:53 PM 48.9 °F - 14.0 °F 25% 29.75 in 10.0 mi SSW 8.1 mph 17.3 mph N/A   Clear
2:53 PM 51.1 °F - 14.0 °F 23% 29.73 in 10.0 mi South 10.4 mph 19.6 mph N/A   Clear
3:53 PM 50.0 °F - 14.0 °F 24% 29.72 in 10.0 mi SSW 9.2 mph 17.3 mph N/A   Clear
4:53 PM 50.0 °F - 12.9 °F 23% 29.71 in 10.0 mi South 4.6 mph - N/A   Clear
5:53 PM 48.9 °F - 12.9 °F 24% 29.73 in 10.0 mi SSE 4.6 mph - N/A   Mostly Cloudy
6:53 PM 45.0 °F 40.1 °F 12.9 °F 27% 29.76 in 10.0 mi WNW 9.2 mph - N/A   Clear
7:53 PM 41.0 °F 35.2 °F 18.0 °F 40% 29.80 in 10.0 mi WNW 9.2 mph - N/A   Clear
8:53 PM 39.9 °F 32.9 °F 19.0 °F 43% 29.81 in 10.0 mi WNW 11.5 mph - N/A   Clear
9:53 PM 39.0 °F 34.8 °F 19.0 °F 45% 29.84 in 10.0 mi WNW 5.8 mph - N/A   Clear
10:53 PM 36.0 °F 30.3 °F 18.0 °F 48% 29.85 in 10.0 mi WNW 6.9 mph - N/A   Clear
11:53 PM 36.0 °F 29.0 °F 19.0 °F 50% 29.84 in 10.0 mi WNW 9.2 mph - N/A   Clear